Theta_e
313 308 311 312 316 319 320 320 320 324 322 323 324 322 321 320 321 327 329 333 335 327 325 327 326 326 327 329 331 333 332 334 331 331 330 333 333 334 334 335 335 337 337 340 341 342 343 343 346 347 348 348 351 356 356 357 358 358 357 360 359 360 362 362 360 362 359 358 357 357 350 350 354 358 359 357 359 360 359 361 365 369 365 372 371 372
312 307 311 317 320 322 321 321 322 323 325 321 322 321 320 323 320 326 327 333 337 328 325 329 327 326 328 332 331 335 335 332 331 330 330 333 334 334 335 336 337 338 340 342 341 342 344 343 347 347 347 350 349 354 354 356 358 358 358 359 361 361 362 362 361 361 360 362 358 354 353 351 353 355 354 358 358 357 360 368 366 369 368 370 370 371
305 305 312 319 323 322 320 318 320 322 322 320 317 319 319 322 324 329 328 333 336 331 321 326 325 328 329 330 333 333 335 334 334 332 332 334 335 333 335 335 337 338 339 340 340 342 343 344 346 346 348 349 350 352 351 356 358 358 357 360 360 362 363 362 363 362 361 360 359 357 355 353 353 357 359 357 358 359 361 363 366 368 370 370 369 370
302 307 314 322 322 317 314 315 317 319 320 319 319 318 317 323 319 315 326 328 332 328 322 325 325 327 329 332 332 333 335 335 338 336 335 336 335 333 333 336 337 337 339 338 340 339 342 345 347 347 348 350 349 351 351 353 357 357 358 361 362 361 364 364 364 363 362 364 366 365 360 358 357 357 360 361 363 361 359 360 364 369 369 369 367 367
307 312 318 321 319 316 315 314 314 315 314 317 319 318 318 319 321 320 321 328 330 328 328 326 323 322 324 323 329 333 335 335 336 336 334 336 337 336 336 338 338 338 340 339 339 339 342 344 346 348 349 349 349 349 350 351 354 354 358 360 363 363 363 366 365 367 367 365 365 365 365 365 363 362 361 359 357 361 360 359 361 363 367 368 366 365
309 314 318 318 317 316 315 313 313 315 313 314 319 319 318 321 320 322 325 322 319 317 325 321 312 314 323 325 326 326 332 332 334 333 331 335 335 335 334 337 339 340 342 340 340 339 341 344 346 349 349 348 349 349 350 352 352 354 358 361 362 364 364 364 367 370 367 364 362 359 357 355 353 352 354 353 352 355 356 354 359 364 364 366 366 366
309 316 317 317 315 315 314 313 314 315 312 310 313 319 323 323 323 323 321 320 313 312 321 327 311 308 324 323 328 329 330 330 332 333 333 333 334 334 334 336 337 336 340 341 341 340 340 343 345 347 348 347 348 350 351 352 354 357 359 363 359 362 365 366 369 370 368 366 364 359 356 354 354 351 353 356 355 356 356 359 360 362 365 367 365 365
311 315 315 315 315 314 312 310 314 315 312 309 318 319 320 324 323 321 322 320 318 323 324 326 322 312 311 320 330 329 327 327 330 331 332 333 333 332 334 335 337 336 339 338 339 340 342 343 343 344 346 346 347 350 352 352 352 356 359 360 362 362 363 365 364 368 370 367 366 362 358 356 355 354 356 359 358 360 361 359 359 361 363 365 365 364
310 311 312 313 314 313 311 313 315 315 312 311 315 320 319 323 323 322 322 319 319 318 312 317 322 312 311 320 329 329 323 323 326 330 331 333 334 334 334 334 335 337 338 338 338 339 340 342 343 344 345 346 347 348 351 353 354 357 360 362 359 356 364 362 367 366 369 369 367 364 361 356 358 358 357 361 362 360 362 360 360 361 361 363 367 365
312 313 314 315 313 311 314 316 315 314 311 315 317 318 323 326 321 322 319 318 316 314 310 315 316 308 309 321 322 326 323 324 325 330 332 333 333 334 333 334 335 336 339 339 339 341 342 343 343 344 345 345 346 348 351 354 355 358 360 361 361 361 360 365 367 367 367 369 367 365 361 359 358 358 358 360 359 362 365 363 363 364 363 360 363 366
314 319 319 314 312 315 316 317 316 315 316 318 318 317 320 322 321 320 321 320 316 307 311 317 321 313 305 316 320 318 320 325 326 331 333 334 336 334 334 334 334 335 337 338 339 341 342 343 343 343 343 345 347 350 351 352 355 356 359 361 360 362 363 363 367 367 365 368 367 367 366 362 361 361 360 359 360 363 365 363 363 365 365 362 360 362
312 314 312 314 316 316 317 315 317 317 316 315 317 317 317 317 322 318 316 318 306 305 314 318 317 315 305 312 324 324 327 330 330 328 331 333 333 333 333 333 334 336 337 338 339 340 340 343 343 343 343 345 347 350 349 351 354 357 357 359 360 362 364 362 365 366 364 365 366 367 368 367 365 363 360 361 359 364 364 363 361 363 363 363 362 363
308 309 313 313 317 314 313 310 311 313 314 313 316 316 310 309 311 304 307 303 304 306 312 318 319 313 310 321 326 331 331 330 333 333 332 333 333 334 333 335 335 336 337 337 339 341 340 340 341 341 343 346 348 350 349 350 351 355 357 358 359 360 363 364 363 365 365 365 365 366 366 369 369 364 364 363 363 363 362 361 362 365 364 364 363 363
306 311 310 311 312 315 314 307 307 307 311 311 313 312 309 306 303 300 304 307 308 311 315 317 321 311 319 321 326 328 332 335 335 335 334 332 333 334 334 335 335 336 338 337 338 340 340 341 340 343 344 346 346 348 349 350 352 354 352 359 358 361 363 364 362 362 364 365 366 366 365 367 369 369 365 364 361 362 362 364 362 362 362 363 364 363
299 300 306 308 305 314 312 311 311 310 311 311 316 313 311 309 305 300 303 301 302 307 313 319 312 310 311 315 329 330 333 333 336 338 338 338 336 336 335 336 336 337 338 339 338 338 339 340 342 342 344 346 347 347 349 349 353 353 355 357 359 360 361 363 362 361 362 363 363 365 365 366 364 365 363 361 362 362 363 362 364 362 360 361 360 364
302 302 308 311 311 312 309 312 314 311 311 314 316 316 312 310 315 306 308 307 306 306 309 310 310 319 316 327 330 334 336 336 337 337 337 339 337 336 334 333 334 335 336 337 338 338 340 341 342 344 345 347 347 348 349 349 352 352 354 357 359 360 360 362 362 360 360 362 362 365 365 365 365 364 363 365 365 367 365 364 362 364 366 362 363 365
304 301 310 310 312 311 310 312 312 313 302 312 313 308 312 320 316 309 311 313 312 308 305 314 313 317 324 327 330 332 331 334 333 331 331 334 336 334 335 334 335 335 336 336 337 338 340 340 342 345 346 346 347 346 347 350 352 354 354 354 357 359 359 359 362 360 360 361 360 362 363 363 365 364 361 359 361 363 364 366 365 360 363 364 364 364
301 302 309 308 306 311 313 312 312 313 313 312 308 312 318 321 318 310 303 307 306 301 304 311 309 311 314 310 326 328 326 327 332 330 328 332 334 335 334 334 335 335 337 338 339 340 341 343 344 346 346 346 346 346 348 350 352 353 354 354 353 356 357 358 358 358 359 360 360 360 360 363 363 362 361 361 359 362 362 367 365 364 362 363 362 362
307 300 305 308 308 310 313 312 309 312 314 311 311 317 310 306 305 311 308 301 303 300 303 307 311 312 313 314 321 321 324 326 329 331 329 330 334 336 333 333 335 336 337 337 337 338 339 341 342 345 346 348 348 351 349 349 351 351 352 352 350 351 354 355 354 356 358 359 357 358 359 359 361 362 361 360 360 360 362 362 361 363 362 362 364 365
308 300 303 308 307 309 310 308 301 304 310 313 315 312 317 313 310 308 309 308 306 303 300 304 309 309 318 320 323 324 324 327 329 332 330 327 331 336 338 335 335 336 337 337 338 338 339 340 342 344 345 346 348 347 348 349 351 351 351 351 350 350 353 354 353 354 356 356 356 355 358 359 361 363 360 360 362 359 360 361 359 360 362 361 363 361
305 309 298 305 309 308 302 306 304 306 303 305 307 307 312 312 317 314 313 308 305 303 302 302 302 309 321 327 326 326 328 329 330 330 334 334 332 334 339 340 336 337 338 338 337 339 339 340 341 343 347 346 347 349 347 349 352 351 351 349 350 348 349 350 351 353 355 355 355 355 356 356 357 357 360 361 361 361 361 360 361 358 361 362 362 361
305 305 300 304 303 303 304 309 308 309 309 307 305 305 310 309 306 303 304 312 309 306 300 303 300 313 325 331 328 326 328 330 332 332 334 335 334 334 339 342 341 340 339 339 339 338 338 341 342 344 346 348 346 347 345 348 350 350 354 354 353 352 352 352 350 353 356 356 354 352 354 355 355 357 357 359 361 361 360 361 361 361 362 360 362 364
310 308 305 302 304 304 307 310 311 311 312 310 309 306 310 311 311 308 299 305 309 309 311 309 306 310 328 332 332 330 331 331 333 333 332 335 336 337 338 341 343 343 343 344 341 339 340 341 342 344 347 349 349 350 348 348 351 353 355 355 354 352 352 354 353 351 357 354 355 354 353 353 354 354 354 354 357 355 357 360 361 363 362 360 360 364
313 306 302 303 308 309 309 311 311 311 311 309 310 311 309 306 310 309 309 311 308 310 306 305 303 311 326 332 332 331 333 334 336 335 336 337 338 339 337 339 345 345 341 340 342 340 342 342 343 343 346 348 350 349 348 350 356 358 356 358 356 353 353 354 353 353 357 355 355 354 353 352 352 351 351 350 351 354 355 356 360 361 361 360 359 359
303 307 304 301 301 304 304 308 307 310 309 307 308 310 310 310 310 311 313 314 306 309 310 306 301 313 326 333 333 333 334 332 333 336 337 335 338 339 341 342 345 347 345 343 341 340 341 341 341 345 347 354 355 354 353 351 355 359 360 361 361 356 357 354 353 352 355 356 355 354 352 351 350 349 349 348 348 349 351 352 356 360 359 358 356 359
307 306 305 298 296 294 294 295 298 301 304 307 309 309 310 309 309 308 305 307 300 309 312 309 307 318 328 331 330 331 332 334 335 336 338 339 338 337 341 345 348 349 349 350 348 344 343 346 346 347 351 355 355 354 357 358 359 361 362 363 365 362 361 359 356 357 359 358 354 356 356 354 350 348 349 349 347 347 347 349 351 355 357 357 356 357
307 308 307 305 302 300 302 306 310 310 307 303 305 306 308 309 309 310 310 306 302 308 309 312 315 312 322 325 326 329 331 330 333 336 333 337 340 342 345 344 348 347 347 349 350 351 352 352 350 353 356 355 355 355 357 358 359 361 362 362 363 365 365 364 362 359 360 358 355 357 358 354 351 349 348 349 348 347 348 347 348 349 352 355 355 355
309 305 306 307 307 307 307 307 309 309 307 306 305 305 307 309 309 308 306 305 312 309 305 313 316 314 317 322 326 328 331 331 332 333 337 337 338 339 341 344 344 346 345 348 348 349 349 352 354 355 357 357 355 355 357 358 359 361 362 361 362 364 364 365 365 363 363 362 357 358 358 356 355 355 351 350 352 350 348 347 348 349 350 352 353 351
307 303 306 305 305 306 307 307 309 308 308 308 307 307 306 308 310 307 308 310 311 307 305 314 317 315 315 320 328 329 329 332 333 333 337 338 339 340 340 340 339 339 342 344 347 348 349 348 349 351 350 354 356 357 358 357 358 361 361 362 364 363 363 366 366 366 366 364 359 360 362 360 359 359 358 358 356 352 352 351 350 350 351 351 350 348
308 304 306 307 305 305 306 307 308 308 307 307 307 308 310 309 308 308 309 310 309 310 312 313 315 314 321 325 324 328 332 333 333 337 336 336 337 338 337 338 338 339 341 341 342 345 348 349 349 349 350 350 351 353 355 356 358 358 358 359 361 362 365 365 366 365 365 364 363 364 366 364 363 363 364 363 363 363 360 356 354 351 351 350 350 352
307 303 306 306 304 304 306 308 309 308 307 307 308 310 310 310 310 310 310 310 311 311 312 314 315 313 325 330 325 331 334 334 333 334 333 334 337 336 336 337 339 340 340 341 343 344 347 350 351 350 348 349 349 351 351 354 356 356 358 358 358 360 363 365 363 365 366 365 367 368 368 367 366 367 366 367 367 368 367 365 360 357 358 355 355 355
307 305 307 306 302 302 305 306 307 308 307 307 307 308 309 309 307 309 309 311 311 310 312 312 311 313 325 328 331 332 332 332 331 332 333 334 335 335 336 336 337 339 341 342 344 345 347 348 349 348 348 350 351 351 352 353 354 354 355 356 357 359 361 361 361 361 363 364 367 366 366 365 365 365 364 365 366 367 369 368 366 365 364 360 357 359
307 306 304 303 300 300 305 306 305 306 305 303 305 308 310 310 314 315 316 316 316 318 314 311 311 324 327 329 327 327 330 331 332 333 333 334 336 336 339 339 338 339 342 344 344 345 346 346 346 348 349 350 350 352 354 356 354 353 355 355 358 360 360 360 359 360 361 362 363 362 361 361 359 359 360 363 366 367 368 367 365 365 365 364 366 362
308 306 304 306 299 299 303 305 306 302 296 297 308 310 312 311 311 313 314 317 319 319 318 323 324 329 328 328 327 327 329 331 333 335 337 337 336 337 338 339 339 339 340 340 340 339 341 342 342 342 342 344 347 347 349 351 349 348 351 352 354 355 355 356 356 358 358 359 358 358 358 358 358 357 357 359 361 363 364 365 365 366 366 367 368 367
305 306 304 307 301 298 302 303 299 295 295 306 310 312 312 313 313 315 316 319 319 320 321 322 323 326 327 329 328 330 332 334 335 335 337 338 338 337 335 335 336 336 335 335 336 338 340 340 340 341 341 340 341 343 343 342 343 345 345 345 344 345 346 349 349 350 354 355 356 356 357 357 358 357 357 357 357 358 358 358 361 362 365 366 365 366
305 304 304 304 303 302 299 299 291 293 304 307 309 311 314 315 314 314 315 316 318 319 321 322 324 326 327 328 330 330 333 334 334 335 336 338 339 337 335 334 335 335 334 335 336 337 338 338 339 338 338 339 339 338 338 338 340 339 339 342 342 342 344 345 345 346 349 350 351 353 355 356 355 357 357 357 357 358 357 358 359 358 362 364 366 361
306 307 305 301 305 296 299 299 298 305 303 306 307 308 311 308 310 312 309 311 319 322 321 325 326 326 327 328 331 333 333 332 330 330 335 335 336 337 337 336 335 333 335 336 337 336 336 336 336 336 337 338 337 336 336 338 339 338 338 338 339 339 341 343 345 345 346 348 350 351 352 352 353 354 355 353 351 356 356 357 358 360 361 360 361 357
310 304 307 301 301 303 298 296 297 298 297 304 310 312 315 314 314 316 316 309 316 321 325 323 323 325 326 328 329 330 330 327 323 325 330 333 335 334 334 334 335 335 336 336 336 335 335 335 334 334 334 335 335 336 337 337 336 336 336 335 336 336 336 338 340 342 343 345 346 347 349 350 350 349 349 350 349 351 355 356 357 357 358 355 350 348
308 308 310 304 300 301 299 295 294 294 298 308 310 312 313 316 314 316 314 307 312 319 323 324 324 326 327 328 330 329 326 321 322 324 330 332 333 333 332 333 333 334 334 334 334 333 334 335 336 336 336 334 332 334 335 335 334 332 332 332 333 334 334 335 336 339 342 343 345 344 346 346 349 349 348 348 349 350 352 352 352 351 352 351 350 350
304 304 304 300 300 301 299 296 294 303 302 309 313 313 314 315 316 313 300 303 312 317 322 325 324 324 329 331 330 328 326 320 320 326 331 332 332 332 332 331 331 331 331 332 333 333 334 336 336 334 334 334 334 335 335 333 331 330 329 331 333 333 333 334 335 337 341 342 346 348 346 348 349 348 347 347 347 348 349 350 348 348 349 347 348 349
302 303 302 299 299 299 300 299 302 303 310 311 313 314 317 315 310 301 294 304 315 319 323 326 326 327 330 331 331 327 329 330 330 332 333 333 330 329 330 330 330 330 330 329 329 332 329 330 329 331 332 334 333 330 329 327 328 329 330 329 330 331 334 336 337 336 338 340 342 343 343 344 345 345 346 347 347 348 348 347 346 346 347 345 346 344
301 301 301 303 299 299 299 297 299 304 310 314 316 317 318 312 302 300 309 319 319 321 325 325 325 329 330 330 328 327 330 331 331 331 331 331 331 329 327 327 327 327 328 329 330 328 327 328 328 327 327 330 330 330 331 332 331 330 330 329 328 329 331 334 336 340 339 338 336 339 341 338 340 340 340 344 345 344 344 344 345 344 342 341 341 342
301 301 299 299 302 301 301 297 295 291 309 315 317 315 317 309 307 314 317 320 321 324 325 325 326 330 328 328 329 328 328 328 330 332 332 332 331 331 330 330 329 326 328 329 330 328 327 325 322 322 325 326 328 330 331 331 331 330 330 329 329 331 332 329 330 334 335 337 338 339 340 340 338 337 336 337 340 342 340 341 343 343 343 342 341 340
308 302 301 302 304 299 298 294 294 306 311 316 316 308 313 316 318 320 320 318 322 323 325 326 327 330 329 328 328 326 328 328 329 330 330 330 330 330 331 329 328 325 327 327 326 325 326 325 325 324 324 324 327 328 330 331 329 329 329 330 332 333 333 332 334 334 333 335 334 336 336 336 337 338 338 338 339 338 338 338 340 339 340 339 338 337
309 306 308 301 307 306 302 305 311 315 315 316 318 317 319 321 322 323 323 323 322 325 328 326 326 327 330 328 327 325 325 328 329 330 330 330 330 330 330 330 327 327 327 326 325 327 326 326 326 326 328 328 329 328 329 330 329 328 327 329 331 331 331 331 331 331 330 331 332 333 334 334 337 338 338 339 339 337 337 338 337 335 337 339 336 335
311 311 313 311 307 313 314 314 314 315 316 316 318 320 319 320 321 323 323 323 324 326 327 326 326 327 330 330 329 326 326 327 328 328 328 329 330 330 331 329 328 328 328 327 327 327 327 327 327 326 325 325 326 327 328 327 328 327 327 329 329 329 329 330 330 330 329 329 330 331 331 331 332 333 334 335 335 335 336 335 335 336 335 336 335 335
309 311 310 306 309 305 299 313 314 315 316 317 317 320 321 321 321 322 323 324 325 326 327 327 328 329 330 331 330 328 328 329 328 328 329 330 330 329 328 327 328 327 326 326 328 327 326 326 323 323 324 324 326 326 326 327 326 326 327 328 326 327 328 328 329 328 327 327 327 330 331 329 328 329 330 331 331 330 332 332 332 332 332 332 333 333
306 312 309 309 307 305 307 313 314 316 318 319 318 318 319 320 320 321 322 325 326 327 327 326 327 326 328 328 330 329 327 328 327 327 327 328 327 328 328 328 329 328 328 328 327 328 326 326 324 324 324 324 327 327 327 327 327 329 329 329 330 329 328 328 327 325 325 324 327 326 328 328 330 331 327 327 329 329 329 331 332 330 331 331 331 331
310 311 306 309 306 308 313 315 316 317 317 318 319 320 321 321 321 321 321 321 323 324 325 326 326 328 328 328 330 331 329 327 328 329 328 327 327 327 327 328 328 328 330 326 326 327 326 327 326 325 323 323 325 326 326 326 326 326 327 328 329 329 330 328 326 326 325 325 327 327 329 325 323 327 330 328 333 329 328 326 327 331 330 328 329 326
309 305 311 308 305 305 307 310 313 308 308 315 318 319 321 323 323 322 322 321 320 321 323 324 324 326 325 327 328 328 328 326 327 328 328 327 327 329 328 328 328 327 327 327 327 326 326 326 325 324 323 324 326 327 327 327 327 329 328 330 331 330 329 328 327 327 327 329 328 327 325 327 327 330 330 326 329 328 326 313 306 316 328 326 317 304
309 312 310 307 304 304 313 315 315 317 316 318 319 321 321 323 323 321 321 322 322 322 321 321 322 323 325 327 328 328 327 327 326 327 326 326 326 327 328 328 327 328 326 326 326 325 326 326 325 324 323 323 324 324 325 326 327 329 329 330 330 330 329 329 327 326 325 327 328 327 329 328 329 330 332 331 330 328 326 328 324 299 299 309 309 302
Wind_Speed
9 12 12 12 12 12 12 12 6 5 4 10 3 7 7 9 5 9 8 10 9 8 7 8 4 4 7 11 13 15 15 15 17 17 15 15 14 14 14 14 14 14 14 14 15 14 12 13 11 11 10 10 10 10 11 10 11 10 10 10 10 9 9 8 7 7 6 7 6 6 6 6 6 5 5 5 5 6 6 7 7 5 5 4 3 3
10 13 13 14 15 11 11 13 8 11 9 4 12 5 9 7 8 7 8 9 7 7 7 7 9 5 7 7 13 14 15 16 17 18 17 16 15 13 14 15 15 14 12 15 15 15 14 12 13 11 10 11 12 10 11 11 11 10 11 11 10 8 9 8 6 6 5 5 5 6 6 6 6 6 6 5 5 7 8 7 6 5 5 4 4 3
12 14 13 14 11 9 14 11 8 10 10 9 5 6 6 3 6 5 8 9 7 5 3 7 10 7 6 9 13 15 14 13 14 16 16 16 16 14 14 14 14 14 14 15 15 15 13 15 14 11 11 11 11 12 11 11 11 11 9 9 9 8 8 7 7 6 5 5 5 4 6 6 5 6 5 5 5 6 7 7 6 5 5 5 4 4
12 13 17 10 11 8 2 7 8 9 10 6 9 7 5 6 6 4 5 12 9 4 6 9 7 2 1 6 12 15 13 13 14 14 15 15 15 16 15 14 14 15 15 16 16 16 15 14 13 11 11 11 11 11 11 11 11 9 10 10 9 9 8 7 7 6 6 6 4 2 4 4 6 6 5 5 4 8 8 8 7 5 5 5 5 5
10 9 15 9 12 4 11 10 11 7 8 6 14 2 6 8 4 2 7 8 9 6 9 8 4 0 1 6 10 8 12 13 14 15 14 14 14 14 15 14 14 15 15 15 16 15 15 14 14 12 12 12 11 11 12 11 10 9 11 10 10 9 8 7 8 7 7 6 5 4 4 4 5 6 5 6 6 5 7 7 7 6 6 5 5 5
13 14 13 13 13 8 12 12 11 9 8 6 10 7 7 9 6 6 12 12 8 7 11 13 6 4 4 8 7 9 9 12 14 15 16 16 15 15 16 15 15 14 14 15 16 15 16 15 13 12 13 13 12 11 11 11 11 11 10 11 10 9 8 9 9 8 7 6 6 6 6 6 5 6 6 6 7 7 7 7 7 7 7 6 5 5
10 8 6 11 9 10 14 12 9 10 7 9 5 5 13 13 11 12 13 9 7 7 9 9 6 5 3 7 8 5 3 11 14 16 16 15 15 15 14 14 14 15 14 14 14 14 16 15 14 13 13 13 12 11 11 10 11 11 12 11 10 9 8 9 9 9 6 6 6 7 7 6 6 6 6 5 5 5 5 5 7 6 7 6 6 6
11 10 11 8 8 11 12 10 7 9 10 3 5 8 9 16 12 11 11 4 2 6 7 7 1 3 4 8 8 11 11 10 15 16 16 15 15 16 15 15 15 15 15 14 15 15 15 15 15 14 13 13 12 12 12 11 11 11 12 12 10 8 9 9 9 9 6 6 6 7 6 6 6 6 6 6 6 5 4 5 7 6 6 6 5 5
16 12 10 14 13 10 11 12 9 6 10 6 6 6 6 8 8 7 10 7 5 8 7 6 3 2 3 2 8 10 11 14 16 16 16 16 16 16 16 17 16 16 15 15 14 15 15 15 14 13 13 13 14 13 12 11 11 11 11 11 11 10 9 9 10 9 7 6 6 5 5 6 5 6 6 6 5 5 5 6 5 5 6 6 5 5
4 3 4 10 11 10 10 12 5 3 12 3 2 4 4 17 11 7 3 4 1 3 4 11 13 6 3 4 8 8 12 10 10 15 16 17 17 17 16 16 17 15 14 14 15 15 14 15 15 14 13 13 12 12 12 12 12 12 11 11 11 11 9 9 10 9 8 6 6 5 5 6 4 5 6 6 6 5 5 6 5 4 4 5 6 5
5 14 7 9 11 11 9 11 7 5 8 9 5 2 3 12 11 8 4 4 2 1 3 9 13 8 4 8 11 12 10 11 13 13 14 16 17 17 17 16 16 15 15 14 14 14 14 14 14 14 14 13 12 12 13 12 12 12 12 12 11 10 9 10 10 9 9 7 6 5 6 6 5 5 6 6 6 5 5 5 6 5 5 4 5 6
2 4 4 7 10 9 11 16 8 2 7 4 4 4 4 6 11 5 3 2 3 2 2 7 12 12 6 5 8 10 14 17 13 14 17 18 19 17 16 16 16 15 15 15 14 15 15 14 13 13 14 13 13 12 13 12 12 12 12 12 12 11 10 10 10 10 9 7 7 6 6 6 6 6 5 6 7 6 6 6 6 5 5 5 5 5
9 10 9 11 9 13 5 5 4 10 10 8 4 6 7 6 5 5 6 6 5 2 5 9 11 6 10 5 9 10 10 14 14 11 16 16 18 18 18 17 15 15 15 15 14 14 14 14 13 14 14 14 13 11 12 13 12 12 12 13 13 12 10 10 10 10 9 8 7 6 6 6 5 5 5 5 6 6 5 5 6 5 5 5 5 5
8 6 9 11 12 12 9 10 7 9 11 11 9 7 8 7 7 6 6 4 5 4 7 9 13 5 3 2 9 16 17 16 14 15 14 20 20 19 17 16 16 14 15 14 15 14 14 14 13 13 13 13 12 13 11 12 12 11 11 13 13 12 11 10 10 10 9 8 8 7 7 6 5 5 6 5 6 6 5 5 5 6 5 5 5 6
11 11 12 12 10 13 14 12 9 6 11 11 8 10 7 6 4 5 4 4 4 3 6 8 10 3 6 3 4 12 14 17 14 10 5 8 14 16 16 15 17 16 15 13 15 15 15 15 14 13 13 13 12 14 12 11 11 10 11 12 13 13 12 11 10 9 10 8 8 7 7 6 6 6 6 5 4 5 5 6 6 5 5 6 6 5
14 9 10 18 10 14 15 15 15 11 8 10 9 7 9 9 4 5 4 4 1 2 4 4 1 1 2 7 4 6 11 10 8 10 10 7 10 14 15 16 16 16 16 15 15 16 16 16 15 13 13 13 13 13 12 12 11 11 11 12 13 13 13 12 11 10 10 9 8 8 8 8 7 6 6 5 5 5 5 5 6 5 4 4 4 5
6 9 9 17 14 12 14 13 15 10 8 7 10 11 8 6 9 5 6 7 2 6 3 6 7 5 7 7 8 9 12 8 7 9 10 8 5 14 15 15 15 15 15 15 15 15 16 16 15 13 13 13 13 14 13 12 12 11 12 12 13 13 12 12 12 11 10 9 9 9 9 8 8 8 7 6 7 7 6 5 5 6 6 6 6 6
6 9 11 10 13 10 8 12 14 14 8 2 10 9 9 9 7 3 7 5 6 6 3 9 8 6 8 5 8 11 13 13 12 13 13 11 9 11 15 15 15 16 15 16 15 15 15 14 15 14 14 14 14 14 13 14 13 12 11 12 13 13 13 13 13 12 11 11 10 10 10 9 9 8 8 7 7 6 6 6 5 6 6 6 6 6
7 10 13 8 10 12 8 10 13 14 14 13 5 1 10 8 10 7 6 8 6 6 2 4 6 11 10 6 10 13 14 16 16 17 15 15 13 11 13 15 17 16 16 16 16 15 16 15 15 15 14 14 13 12 13 13 13 13 12 13 13 13 13 14 12 12 10 11 9 9 10 10 9 8 7 7 8 7 6 7 7 5 4 7 6 4
5 9 6 8 10 11 11 10 12 12 14 17 12 8 7 7 9 8 7 6 5 2 1 4 7 4 7 3 10 12 13 14 15 15 17 18 17 13 11 14 16 16 16 17 16 15 15 16 17 16 15 14 13 13 13 14 13 14 13 12 12 13 13 12 12 12 12 11 10 9 9 9 8 8 8 8 6 6 7 6 7 8 9 6 6 7
8 6 8 8 9 12 11 10 12 11 12 13 12 9 7 8 4 7 4 8 6 4 6 2 4 5 3 5 9 11 13 14 15 15 14 13 16 16 11 11 14 14 15 16 17 16 16 16 16 16 14 13 12 12 13 13 13 12 12 13 12 13 14 14 12 12 10 10 10 11 10 11 10 10 8 9 8 8 7 7 6 7 6 7 6 7
7 7 9 6 6 10 8 11 13 12 11 11 12 11 9 10 12 10 8 7 9 6 3 3 2 3 4 3 4 7 8 11 11 11 10 12 13 13 13 9 10 12 13 15 16 17 17 16 16 15 14 12 12 11 13 12 13 13 12 11 11 11 10 11 12 11 10 10 10 10 10 10 10 10 9 10 10 9 8 8 7 7 6 8 6 7
5 8 10 7 8 9 11 10 12 14 10 11 10 11 12 9 6 8 7 7 8 7 7 3 1 3 4 3 5 8 6 8 13 11 11 10 12 12 12 10 5 4 1 8 16 16 16 15 14 14 14 13 13 11 13 12 11 11 11 11 11 11 10 9 10 11 10 10 9 11 11 10 10 10 11 11 10 11 10 9 9 8 8 7 8 7
3 7 7 9 12 6 9 13 15 17 13 9 11 12 12 13 11 9 9 6 7 5 8 6 4 3 4 2 7 10 9 7 9 13 13 11 12 12 15 14 10 8 11 14 14 13 13 15 15 14 14 13 12 13 12 10 9 10 11 10 11 12 12 11 10 10 10 10 10 11 10 10 10 12 12 11 10 10 10 9 9 9 9 9 8 8
6 7 9 7 6 8 10 5 5 8 8 8 8 10 12 12 14 13 7 3 9 6 8 4 4 3 5 4 3 6 11 11 10 11 12 13 10 10 13 12 9 9 11 14 14 13 13 13 13 11 11 10 10 10 10 11 10 11 10 10 10 11 13 12 11 11 11 11 11 11 11 12 11 11 12 12 11 11 11 10 9 9 9 9 8 8
6 4 6 9 10 10 10 11 10 10 12 10 12 12 13 16 15 11 11 8 7 6 10 7 4 6 7 7 5 7 7 8 10 11 9 11 14 15 14 14 12 8 7 8 7 7 11 11 10 11 11 10 10 11 10 10 10 10 10 11 10 10 11 11 10 9 10 10 10 10 10 10 11 11 11 11 11 12 11 10 10 10 10 9 9 9
6 4 7 7 8 7 4 9 13 8 11 13 13 14 13 14 16 13 7 8 10 8 9 4 6 2 7 6 8 10 8 12 10 10 13 12 11 12 13 12 11 10 9 9 7 6 6 6 9 10 10 9 10 10 9 9 10 10 10 11 10 9 9 9 10 10 10 11 10 10 10 10 11 10 11 11 10 10 10 11 10 10 9 8 8 9
5 7 7 8 10 11 10 7 9 10 12 13 14 16 14 9 7 10 10 8 3 6 8 4 3 7 4 6 8 9 8 11 11 11 11 11 12 12 13 13 13 11 10 8 9 8 6 7 6 8 7 7 8 9 9 9 9 9 9 10 9 9 9 8 10 10 10 10 10 9 10 10 9 8 9 9 8 8 8 10 10 9 8 8 10 10
5 7 6 7 11 11 13 10 9 11 11 10 15 10 12 12 11 12 12 11 9 9 6 6 7 5 6 10 9 7 8 10 10 11 11 11 11 11 11 14 15 14 13 12 9 9 7 7 6 7 8 7 6 7 9 8 9 8 8 8 8 8 9 9 9 10 10 10 10 10 9 8 8 7 6 5 5 8 8 6 8 8 9 8 9 8
5 8 7 9 9 8 8 8 5 10 8 9 7 8 9 11 16 14 12 10 12 13 5 4 4 2 12 8 5 9 7 8 9 7 8 10 11 11 12 12 12 13 14 14 12 11 8 8 8 7 6 4 5 7 7 8 9 9 9 9 9 9 8 8 8 9 9 9 9 9 10 9 8 7 7 7 7 7 7 8 8 8 9 9 9 8
6 4 6 8 10 10 8 8 8 10 8 11 2 4 7 8 9 8 8 11 11 7 3 7 6 3 8 5 2 5 10 7 10 8 9 10 11 11 10 11 12 12 10 12 12 11 8 8 7 8 8 7 6 7 7 7 8 8 9 9 9 9 9 8 9 8 8 8 8 9 8 8 8 8 8 7 7 7 7 7 7 8 7 8 8 8
6 4 6 7 8 6 8 11 13 11 6 3 1 2 6 5 9 5 8 4 5 6 8 6 7 5 9 4 2 6 8 8 10 10 8 8 9 10 10 9 10 9 9 8 8 9 8 8 7 8 8 8 8 8 8 8 8 8 8 8 8 7 6 7 6 7 7 7 7 7 7 7 7 7 7 7 6 7 6 6 7 7 7 8 9 8
3 4 7 7 8 8 3 9 9 9 8 9 3 4 5 2 5 5 4 3 5 6 5 8 4 6 5 9 7 3 6 7 10 9 8 8 6 8 8 7 8 8 8 8 8 7 5 4 7 8 8 7 5 5 2 1 5 5 6 6 6 5 5 5 6 6 6 4 3 3 3 4 7 7 6 6 5 4 5 5 7 7 7 7 7 7
3 7 7 7 7 4 5 7 5 10 11 3 5 6 6 6 3 6 6 11 7 3 4 7 4 3 5 4 5 3 5 7 7 7 6 7 7 6 8 8 7 7 8 8 10 10 9 9 9 9 10 9 8 8 7 7 8 9 10 9 8 2 4 6 6 5 5 4 4 4 5 5 5 7 8 6 7 6 6 5 6 6 6 5 5 5
6 5 7 5 6 7 7 4 7 12 3 5 5 9 7 4 5 8 6 7 6 2 4 6 5 2 2 5 7 8 6 7 8 9 9 9 8 8 9 8 9 9 9 9 9 7 8 8 9 9 9 9 9 9 8 8 7 9 9 8 7 7 7 7 6 5 5 6 5 6 7 8 9 9 9 7 8 9 9 9 8 8 6 5 5 5
5 6 5 7 6 5 7 6 8 1 5 2 7 10 11 7 11 5 8 8 9 10 3 5 4 9 9 9 10 9 8 10 9 8 7 9 9 8 8 9 9 9 9 8 8 8 8 8 8 9 10 9 9 9 9 9 7 8 8 7 7 6 7 5 3 1 3 3 4 5 6 8 8 8 8 7 7 7 8 8 9 8 7 6 3 1
5 4 5 6 6 9 7 8 7 6 5 4 4 11 10 9 8 6 3 7 9 7 8 7 2 4 5 12 8 10 10 10 8 6 6 6 7 8 9 9 11 11 10 9 10 9 9 10 10 10 10 10 11 12 11 9 11 11 9 8 7 7 6 4 5 5 4 4 4 4 3 2 4 5 4 5 7 5 4 4 4 4 3 5 5 3
3 6 0 7 6 8 8 7 9 6 8 6 7 8 8 7 5 3 2 8 12 11 10 8 9 6 9 5 9 9 9 8 7 7 6 10 11 13 14 13 11 11 11 12 12 12 11 11 11 11 12 14 15 14 10 9 8 8 9 8 7 7 7 6 6 5 4 3 3 3 2 2 2 3 3 3 1 4 4 3 3 2 3 4 6 5
3 5 4 6 7 7 10 10 8 8 2 5 8 9 10 9 6 2 4 3 11 14 12 11 9 12 4 8 9 7 6 4 7 8 7 10 12 10 11 10 10 12 13 14 14 14 14 13 13 13 13 13 14 12 12 12 10 9 9 8 7 6 7 6 5 4 4 4 3 2 2 2 2 4 5 5 4 3 4 5 4 4 4 4 4 5
4 6 8 9 9 9 8 9 5 5 5 9 11 9 10 9 10 4 9 3 10 14 11 11 10 8 6 6 4 4 3 4 5 7 9 11 11 10 11 13 13 13 13 13 14 14 13 11 12 13 13 13 12 11 11 11 10 10 9 8 7 8 7 6 5 5 5 5 3 3 3 3 4 6 6 6 7 5 6 5 5 4 5 5 3 3
2 4 6 8 8 6 6 6 5 5 5 11 12 11 11 10 7 9 1 6 11 12 10 7 7 8 5 3 1 3 5 5 7 9 10 13 14 12 12 12 12 12 13 13 13 12 11 11 10 10 11 9 9 10 11 10 9 8 8 8 8 9 7 6 5 4 5 5 5 4 3 4 5 7 6 4 5 5 4 4 5 4 4 5 4 4
5 3 5 4 4 5 4 6 4 4 6 11 11 8 13 11 5 3 5 7 8 10 12 10 8 7 4 8 8 5 3 6 12 12 11 12 14 12 12 12 13 14 14 13 10 9 10 10 11 11 9 6 7 8 7 8 8 8 8 8 8 8 7 7 7 5 4 4 4 4 4 4 5 6 6 4 4 5 5 5 5 4 4 4 5 4
6 5 3 1 2 4 5 5 5 3 6 13 13 1 16 6 4 4 6 6 7 7 7 6 7 8 7 6 9 11 14 14 13 12 11 12 12 9 10 13 13 14 12 10 9 10 9 8 9 10 7 5 6 5 6 7 7 8 7 8 8 7 7 7 5 5 5 5 3 2 3 3 4 4 5 4 4 5 5 3 5 6 5 5 4 5
7 6 0 5 5 5 3 2 3 5 7 10 12 8 7 8 4 4 5 6 6 7 7 5 6 7 9 5 7 12 11 11 8 10 11 11 13 13 12 13 13 12 11 11 11 10 11 9 7 6 6 6 6 5 6 6 7 7 6 7 6 6 6 6 5 3 3 2 2 1 3 4 4 3 3 4 3 4 3 2 3 3 3 3 2 3
8 5 6 5 7 4 3 5 5 4 6 8 9 9 8 7 6 6 6 6 7 7 7 5 8 7 10 9 7 8 7 6 9 12 13 13 13 13 13 13 13 12 11 12 11 10 8 8 8 8 8 6 6 5 5 5 6 7 6 5 4 5 5 4 4 4 3 3 3 3 3 2 3 4 4 3 3 3 3 3 3 3 1 0 1 1
4 4 1 2 8 10 9 7 6 5 6 8 8 8 9 9 9 8 9 7 8 8 7 7 8 7 7 8 7 7 7 11 10 10 11 11 11 11 11 11 12 11 11 10 10 9 8 8 8 8 8 7 7 6 6 6 5 6 5 4 4 4 4 4 3 4 4 2 1 1 3 4 4 3 3 4 2 2 2 2 1 2 1 0 1 1
4 2 2 3 7 6 4 6 6 6 6 7 8 8 9 9 9 9 9 9 8 9 9 9 8 7 6 4 4 7 9 9 11 10 10 11 11 11 12 11 10 10 10 9 7 7 8 8 8 7 7 7 6 6 7 7 6 6 4 4 4 5 4 4 3 3 2 1 2 1 1 1 2 4 4 4 4 4 3 2 2 2 0 1 1 1
6 1 5 4 3 1 5 3 7 6 6 7 6 6 8 9 10 10 9 9 8 9 10 9 8 9 6 6 5 8 9 9 9 8 8 9 10 11 11 11 13 11 9 7 7 6 6 7 8 7 7 6 5 6 6 6 5 3 2 3 5 5 3 3 3 3 3 3 2 2 2 0 4 3 3 2 1 3 3 2 3 4 2 5 6 4
6 3 2 0 5 5 8 6 6 7 7 8 8 8 8 7 8 10 10 11 10 10 10 10 9 9 8 7 5 6 7 8 8 8 8 9 10 10 11 11 11 12 10 7 7 7 7 6 6 6 6 5 4 5 5 5 5 4 4 3 3 2 2 3 2 2 2 2 1 3 1 1 4 3 1 2 5 10 8 9 11 7 7 9 7 7
4 3 3 4 4 2 3 3 4 3 2 4 7 7 7 7 8 9 9 11 11 11 9 9 9 8 6 5 5 5 7 7 7 7 8 9 9 12 12 11 11 12 11 8 7 8 7 4 5 5 5 4 3 4 5 5 4 3 4 4 3 2 3 3 2 2 2 2 2 2 1 1 1 2 1 3 3 7 7 11 12 10 7 6 7 10
2 4 4 3 3 3 3 0 3 5 6 5 5 6 6 6 6 8 9 9 10 10 9 9 8 7 7 7 4 3 4 4 6 5 6 9 11 10 11 13 13 10 9 9 9 9 7 7 6 6 5 2 2 3 4 4 4 4 4 3 3 2 3 2 2 2 2 2 3 4 3 2 2 1 3 3 2 4 4 4 9 13 13 11 8 9
Wind_Direction
175 213 205 215 223 209 210 230 235 249 232 111 120 231 113 163 131 143 141 155 168 150 184 186 153 140 204 187 177 171 169 173 168 164 161 163 163 168 167 159 164 162 159 161 161 158 157 159 155 153 153 153 146 139 140 149 144 147 143 143 148 146 143 153 154 161 162 155 155 156 165 160 159 150 150 167 144 140 133 137 137 147 144 145 147 143
200 219 221 213 226 220 216 226 181 232 264 176 168 180 149 164 160 144 143 154 171 192 153 168 163 186 237 223 183 176 173 172 171 162 163 164 165 165 168 161 162 166 156 160 159 159 158 163 156 156 155 155 149 150 156 155 147 156 148 151 148 147 152 151 160 156 161 158 158 167 164 165 151 147 169 156 161 146 125 131 140 154 136 147 149 158
209 221 222 217 223 240 237 222 200 235 262 246 149 152 128 131 67 83 146 153 166 163 153 179 175 183 216 223 213 176 171 171 173 166 164 166 165 168 167 166 163 167 159 164 163 158 164 160 162 157 159 155 155 158 159 157 152 151 147 150 154 151 153 155 154 163 156 168 158 184 151 163 146 153 169 161 138 104 141 148 153 142 148 159 155 158
208 218 230 216 222 229 299 258 250 234 244 256 97 140 149 159 173 145 145 174 171 182 165 179 179 137 105 227 244 170 179 168 170 173 166 169 167 167 168 169 169 164 164 166 166 165 163 161 161 164 160 162 157 165 156 161 159 157 152 152 154 150 155 148 150 159 159 140 125 106 144 126 159 150 136 128 138 149 151 151 152 152 158 169 164 169
219 213 220 222 214 210 244 223 239 229 232 208 104 229 159 177 210 205 169 156 158 140 153 125 124 1 105 240 214 161 169 172 171 171 169 171 170 167 168 169 174 168 167 167 168 168 160 166 165 169 163 165 161 167 160 164 168 158 155 156 150 154 147 151 149 150 130 130 144 127 116 106 102 125 144 155 160 152 153 155 162 157 167 176 171 169
222 221 198 207 211 207 238 231 225 236 232 237 176 170 137 154 145 152 152 157 178 164 165 166 149 189 203 228 166 207 179 177 170 173 175 173 169 171 174 173 172 172 172 169 170 168 163 170 166 167 169 166 165 169 162 167 169 154 161 152 154 150 152 149 148 140 147 155 156 159 156 151 158 156 164 170 164 164 163 169 159 155 172 169 171 174
228 141 224 210 196 234 234 248 208 223 234 240 185 178 120 141 151 148 161 168 185 189 165 197 200 157 161 217 209 150 179 193 172 178 177 173 174 173 178 173 174 175 170 174 170 173 164 170 170 171 171 171 168 166 164 167 161 154 152 157 156 156 153 147 150 153 161 160 162 170 169 164 165 164 156 162 158 155 165 158 151 158 164 168 180 168
238 147 203 213 218 226 226 226 219 207 245 274 125 196 144 144 146 156 165 147 57 70 138 201 219 133 176 221 214 176 194 206 187 182 179 177 177 174 181 175 179 177 174 172 174 176 169 172 173 170 174 174 169 166 165 164 158 154 154 159 157 157 157 153 155 162 164 159 163 174 176 164 168 165 149 155 154 155 151 150 159 161 163 168 185 165
221 135 213 202 223 226 225 232 172 206 243 90 287 123 148 166 118 150 189 142 168 151 154 205 194 77 224 192 178 185 189 208 196 186 182 178 182 176 185 178 179 179 174 177 174 176 170 175 169 174 175 177 170 168 163 165 155 154 156 158 160 162 159 157 160 163 165 160 162 168 167 164 174 148 153 157 152 146 149 157 153 165 161 168 177 177
211 268 157 237 211 221 231 231 232 174 235 132 154 241 138 118 124 194 158 119 113 255 179 178 181 199 195 202 168 193 205 192 204 196 189 178 185 180 186 181 179 177 173 182 175 174 172 173 171 175 174 176 173 163 160 163 156 158 158 160 162 158 164 156 161 167 164 159 161 166 159 165 150 151 154 161 146 148 149 150 148 155 170 174 176 177
247 184 253 219 218 231 217 250 192 199 267 29 263 211 217 163 139 142 113 127 126 264 222 174 175 193 189 197 192 176 203 188 194 198 187 183 187 181 188 183 178 174 175 180 174 173 174 177 172 172 174 173 166 161 164 165 158 161 161 159 164 161 164 160 165 167 166 164 167 159 148 157 159 152 152 148 151 152 160 161 163 167 173 187 181 182
194 175 222 244 259 236 235 223 176 259 266 233 220 198 213 203 133 107 87 136 219 177 316 165 181 184 213 195 216 192 173 186 179 191 190 186 186 182 185 183 175 176 177 178 170 176 174 173 178 172 174 167 166 164 167 164 163 162 162 161 164 165 166 164 169 171 168 167 167 157 157 155 155 164 159 161 162 159 166 165 163 168 168 178 182 188
187 217 215 224 229 264 253 295 179 204 226 226 191 208 222 192 199 172 185 195 233 218 172 174 171 182 232 228 193 194 186 178 181 180 193 184 192 183 186 178 172 174 178 178 173 176 172 173 182 176 170 166 165 164 174 165 164 162 163 162 166 168 169 169 170 174 171 170 168 163 162 159 155 169 163 166 162 166 163 177 162 168 175 170 183 188
216 197 191 216 205 211 242 214 205 187 201 217 202 205 220 233 211 228 206 211 170 141 137 159 194 224 128 282 208 187 196 188 178 166 206 188 190 183 183 178 171 175 177 181 171 177 174 173 181 178 168 169 166 166 180 168 163 161 167 165 169 168 170 170 175 172 176 175 173 170 169 163 160 164 172 174 177 170 171 177 175 176 178 177 182 180
219 197 204 202 206 176 218 232 243 243 183 219 206 208 231 244 264 266 241 235 186 132 155 165 187 287 167 268 224 186 185 188 184 117 87 193 185 186 181 183 171 177 176 182 173 180 177 175 177 178 171 169 173 169 181 169 162 163 162 167 169 169 171 172 176 174 178 180 178 174 175 172 174 174 179 176 182 176 177 182 172 182 174 177 174 186
217 254 184 188 210 177 207 217 248 278 253 202 215 214 229 232 239 257 283 93 187 182 134 301 193 341 60 181 177 167 167 162 191 133 193 169 193 194 186 186 177 179 178 181 180 181 177 176 176 178 173 170 178 173 178 173 167 171 163 169 172 170 172 172 176 178 179 181 179 178 180 181 179 180 184 169 186 186 185 180 175 172 195 159 182 165
189 251 117 168 201 190 203 204 219 249 243 175 198 217 226 241 254 269 274 98 200 145 173 218 151 142 112 160 137 154 159 162 174 198 204 203 212 204 192 185 182 181 178 180 181 183 177 175 176 178 177 177 180 178 180 175 173 173 164 171 174 173 174 173 177 179 180 181 182 180 185 185 185 185 191 181 197 185 182 172 192 169 192 166 172 167
250 221 141 175 199 204 206 201 223 213 261 222 226 203 210 236 280 261 261 210 216 238 150 207 169 168 188 155 164 151 164 172 182 194 195 196 213 214 188 188 188 183 177 179 183 181 181 176 174 180 180 184 183 181 177 175 175 175 174 172 175 176 177 175 179 180 182 181 185 183 187 193 195 192 196 193 183 186 180 174 194 176 182 182 174 197
228 262 143 187 208 177 198 204 217 223 230 249 230 277 226 200 221 201 254 243 235 233 154 271 255 150 229 144 167 170 175 175 181 180 182 192 202 200 192 190 188 184 180 179 185 180 180 180 179 184 184 183 183 180 179 175 181 177 181 178 180 180 180 180 179 180 182 182 188 183 188 190 197 201 191 207 174 201 182 188 188 166 202 173 176 196
251 282 158 164 212 170 193 206 215 200 211 237 264 247 248 230 235 232 225 268 264 264 194 169 243 111 28 188 166 181 184 175 175 178 186 190 193 192 194 191 192 185 181 178 183 182 182 181 182 184 185 181 182 182 182 182 184 183 181 182 184 176 179 182 182 178 186 184 192 183 183 190 192 208 192 201 192 195 188 202 183 180 184 177 186 180
262 211 277 142 211 177 203 194 217 206 196 202 221 243 211 223 260 280 246 259 266 258 257 180 215 92 71 163 181 178 178 184 185 181 187 192 191 188 197 198 188 193 181 180 183 185 183 184 184 183 182 179 184 186 187 185 184 182 184 180 189 177 179 180 184 180 187 186 191 181 187 186 192 197 199 197 187 202 187 198 199 188 190 178 187 184
241 234 252 148 202 191 214 180 228 220 212 209 210 222 234 218 205 214 229 219 259 261 223 228 286 89 121 340 140 155 181 181 187 190 190 189 194 186 185 207 191 186 187 185 186 186 185 184 189 180 180 183 181 189 192 187 180 184 182 178 190 174 190 178 185 178 179 188 191 189 189 191 188 196 199 205 182 202 189 194 200 185 199 178 195 187
308 326 281 226 195 201 215 185 202 247 228 226 213 220 222 238 234 242 243 233 254 250 262 233 150 134 119 153 109 140 161 183 174 183 184 190 187 178 182 185 187 174 259 240 193 190 183 181 187 182 181 183 172 190 197 181 190 175 180 180 189 178 186 184 192 177 177 189 190 190 191 194 189 193 201 207 198 197 198 190 195 186 196 197 184 191
285 253 247 282 305 179 193 207 189 214 240 250 220 231 217 224 215 221 234 263 282 264 256 232 193 160 141 169 153 147 172 167 170 178 176 171 177 179 180 181 167 173 162 236 225 189 184 180 187 181 178 180 176 187 192 180 169 169 181 182 183 185 182 184 195 178 178 186 193 193 190 194 198 194 197 206 208 204 203 198 192 191 199 200 193 185
249 200 265 231 237 182 161 135 172 196 233 242 245 212 236 237 226 225 226 278 262 261 284 257 239 118 103 166 148 149 152 159 169 166 165 156 169 178 173 167 155 173 169 192 198 193 188 188 186 184 174 169 173 178 181 179 175 174 179 178 182 187 184 186 190 187 177 192 189 193 196 194 201 198 199 205 204 205 205 206 205 188 206 199 207 201
269 264 243 237 217 205 188 200 190 205 218 222 241 250 217 234 239 226 210 203 244 263 289 265 135 149 141 157 173 174 159 140 155 164 148 166 171 174 179 159 156 137 105 91 100 149 172 177 173 171 163 166 173 176 176 171 170 174 176 181 180 185 181 188 182 197 176 193 189 189 197 203 199 200 201 209 210 199 202 208 206 203 199 206 199 208
277 270 258 262 270 266 340 344 304 247 187 219 213 240 240 216 233 245 237 212 226 234 236 252 80 186 134 161 181 165 176 156 154 158 159 165 170 168 161 159 160 151 138 129 118 95 82 111 141 154 159 174 175 169 171 170 173 174 177 182 179 180 182 183 180 189 179 192 192 187 193 202 207 203 199 204 216 206 196 202 210 207 211 203 210 209
252 258 226 242 246 251 274 270 296 255 220 199 224 211 236 266 244 245 245 232 224 238 243 267 230 189 208 184 184 172 178 154 160 160 158 165 168 175 172 165 168 164 160 144 143 141 144 132 133 144 145 161 170 163 164 171 172 178 180 181 178 181 181 181 182 184 182 187 192 185 194 201 208 213 213 203 203 234 214 201 202 209 217 213 210 216
274 255 216 259 222 227 245 260 234 218 248 211 209 218 206 224 241 233 243 236 197 239 246 13 351 304 184 181 167 162 185 164 165 153 156 158 163 166 171 173 181 186 182 175 163 155 159 147 146 159 165 166 167 159 160 171 172 176 180 181 184 183 188 184 182 184 183 187 187 184 193 201 205 213 219 229 209 213 241 224 208 205 206 217 230 218
276 246 249 277 265 227 230 225 239 245 222 265 236 221 273 234 215 222 236 239 222 224 207 223 265 210 29 338 137 154 171 164 156 147 140 157 160 168 170 170 175 193 186 188 183 184 177 166 165 165 160 178 188 190 184 176 172 177 178 181 181 185 186 182 181 184 188 190 185 183 185 191 195 196 202 204 204 212 217 224 223 219 211 212 220 234
280 201 265 268 274 213 212 233 228 229 218 221 78 327 256 268 289 260 256 230 242 256 194 211 160 169 95 225 214 166 146 144 152 154 164 156 154 166 170 176 178 180 188 199 194 188 180 181 176 174 175 179 199 201 204 195 188 183 182 179 180 184 181 190 183 183 189 187 183 178 178 177 179 184 192 193 200 203 212 225 227 228 222 217 216 225
244 254 224 259 259 237 210 211 208 213 203 130 47 334 325 253 233 241 253 301 273 233 244 244 236 123 120 144 153 138 135 152 154 156 165 172 167 171 169 175 172 169 176 182 188 193 189 189 184 189 191 187 197 206 211 200 193 189 180 181 179 183 180 188 188 193 196 188 181 179 175 177 181 187 188 191 197 202 212 218 221 223 222 225 224 217
288 290 251 235 237 231 201 237 201 206 180 198 161 34 4 303 343 349 352 356 15 349 249 232 340 74 123 138 135 169 182 154 144 159 163 166 179 173 172 168 162 167 162 169 170 172 161 183 196 193 188 187 169 180 170 187 193 182 171 173 166 149 162 175 190 188 187 153 153 174 189 210 207 206 208 200 193 201 209 212 220 221 225 230 240 236
209 247 254 266 266 235 209 267 247 211 208 162 52 37 14 25 49 349 35 22 334 15 11 356 75 78 119 126 119 158 177 149 147 140 146 153 157 155 133 115 112 115 109 107 103 98 101 91 79 80 82 92 94 79 67 71 85 77 65 55 44 62 171 173 187 174 168 173 179 207 217 213 235 217 216 215 213 213 221 225 223 223 226 231 231 240
275 254 251 229 251 229 247 260 267 229 135 71 45 33 24 34 358 76 71 48 32 16 33 358 129 178 173 128 151 195 132 119 132 135 146 140 132 115 112 112 111 109 107 106 104 106 104 102 111 115 109 94 89 88 82 76 83 90 87 88 88 80 39 30 63 87 128 140 160 196 212 213 206 208 208 206 219 222 221 222 223 225 225 227 233 236
298 266 248 233 233 255 261 242 261 86 117 73 61 32 15 15 27 106 100 62 32 2 6 174 258 158 186 176 184 135 149 117 107 91 100 114 123 128 144 126 126 121 118 115 120 124 127 128 122 117 109 108 106 100 91 90 78 74 74 76 82 72 85 98 108 297 301 140 162 193 205 211 213 211 210 196 207 214 218 223 224 226 216 223 222 333
302 282 265 262 207 239 221 232 229 66 225 119 45 28 11 10 6 349 88 49 33 34 359 335 355 138 195 136 121 116 117 120 109 100 83 90 105 109 117 113 103 112 119 124 122 116 114 115 114 116 118 115 109 101 93 86 93 91 80 74 75 81 79 69 85 102 113 105 106 102 106 168 182 180 196 200 214 199 196 207 211 206 200 221 217 150
223 265 227 250 213 236 232 224 223 212 240 80 23 12 2 12 328 323 50 69 30 21 14 24 337 318 95 80 130 132 127 128 129 101 76 77 87 88 85 94 107 111 112 110 108 110 109 108 109 109 108 105 100 97 87 77 80 86 95 93 90 91 83 73 70 67 51 48 69 87 119 134 142 116 50 35 128 196 170 136 98 101 70 54 67 87
238 225 264 240 251 217 225 234 227 225 133 20 15 354 359 344 344 337 218 96 20 6 14 2 6 329 85 151 120 149 157 150 126 117 90 90 89 98 104 106 109 114 116 113 111 108 106 104 104 107 106 102 99 98 95 89 76 70 67 72 78 76 76 69 57 48 62 53 39 78 110 148 145 131 175 184 186 133 114 106 105 93 96 88 83 78
243 214 210 214 233 237 239 233 241 357 57 8 353 342 347 353 310 288 232 135 12 357 354 9 357 345 318 96 135 145 210 144 148 118 123 107 105 106 116 119 120 121 115 107 103 103 104 106 107 103 102 101 106 113 110 103 98 92 89 82 73 68 60 56 47 17 17 17 31 47 69 86 76 81 88 98 102 113 117 131 125 119 107 110 101 118
222 228 224 233 241 226 228 242 125 147 61 350 346 332 335 337 329 258 275 349 347 339 349 359 350 5 313 123 208 166 61 36 108 124 115 115 111 109 114 116 108 99 99 100 101 103 109 105 94 87 83 90 106 108 107 107 107 106 101 95 85 77 68 62 63 48 25 23 23 42 46 60 73 90 89 93 104 120 133 116 107 122 156 136 130 134
216 263 234 252 249 255 237 235 114 67 27 338 333 340 345 286 246 2 15 325 323 345 353 12 353 347 8 27 38 36 49 95 115 118 122 113 102 109 116 112 109 106 107 106 113 110 99 84 82 85 77 70 92 98 91 94 101 104 107 106 99 95 91 73 51 38 55 69 9 348 79 79 63 66 58 66 93 89 84 96 106 109 82 79 88 72
13 310 268 330 317 240 221 195 144 199 45 359 329 18 20 24 54 350 331 334 341 356 12 359 2 354 38 98 92 78 68 59 62 73 75 86 95 88 91 97 98 105 108 106 92 85 94 96 102 105 116 114 87 74 93 98 100 104 103 98 103 108 105 96 84 56 48 36 66 89 43 34 82 90 99 91 99 99 99 94 81 66 71 90 111 119
20 293 273 69 7 306 308 3 57 34 36 25 29 58 33 38 8 355 320 351 2 10 5 352 17 43 58 67 97 89 95 103 104 108 108 112 122 137 140 126 123 128 134 125 121 125 122 121 119 120 106 91 93 102 101 100 92 87 89 86 86 97 100 102 97 74 72 102 132 119 116 108 99 86 84 98 82 89 88 78 95 121 116 134 141 130
29 5 359 11 41 46 52 89 80 64 55 48 56 64 54 49 31 10 7 24 11 16 357 15 34 39 99 117 92 119 139 169 158 143 137 138 135 133 132 131 136 136 130 128 125 128 137 131 124 114 109 110 102 96 95 88 96 97 86 80 84 94 105 103 121 145 148 166 145 161 160 151 136 139 137 134 133 142 140 141 135 109 104 77 87 71
74 53 317 246 106 106 91 106 113 75 63 77 73 53 50 44 37 32 31 28 24 20 21 23 31 35 77 124 140 161 153 151 145 134 132 128 126 122 125 131 134 129 120 123 132 150 132 118 111 105 100 101 110 112 110 112 106 99 96 99 92 87 90 125 138 133 141 157 144 169 174 176 163 155 156 148 152 150 193 161 210 106 135 347 70 48
112 235 204 252 118 209 109 120 107 94 81 74 74 71 65 48 40 35 40 35 30 23 33 26 42 66 72 104 122 120 132 138 128 132 131 127 123 128 124 118 116 122 129 120 111 126 123 109 108 111 114 111 113 114 113 109 109 110 124 128 135 115 105 94 91 93 83 67 156 191 296 232 204 171 152 186 165 165 168 129 134 113 158 229 198 112
147 252 273 97 164 107 130 97 90 90 71 49 41 57 52 50 47 44 42 41 35 34 36 48 49 50 44 48 83 124 130 127 134 133 138 135 132 123 116 106 100 87 73 86 85 98 111 113 111 106 101 93 85 89 94 102 110 120 116 101 94 97 114 123 130 136 140 157 203 164 177 290 336 318 169 172 211 68 49 66 136 148 60 32 18 8
52 244 244 82 129 109 113 106 103 102 93 78 67 61 50 45 50 48 46 45 39 38 36 38 44 70 59 46 85 131 128 133 133 140 132 130 142 144 136 123 118 117 117 109 78 64 64 78 98 105 111 103 100 97 97 95 94 98 103 95 95 111 101 93 93 113 145 129 112 63 18 132 183 238 111 121 87 70 50 32 19 12 85 54 38 29
228 287 62 212 37 38 83 113 141 212 114 95 69 55 54 55 50 51 51 49 45 39 32 42 39 34 76 96 91 110 126 138 154 172 156 148 141 128 129 124 123 123 124 123 119 117 116 98 86 84 75 75 86 99 102 102 95 88 94 95 106 121 117 127 127 134 100 104 82 125 196 273 200 49 61 179 147 92 89 60 58 34 43 67 74 72
63 88 305 28 181 136 148 179 106 138 125 67 73 60 50 42 52 52 49 46 48 48 37 32 40 42 32 41 19 87 130 162 153 173 172 155 149 148 145 145 142 143 141 142 131 124 131 126 119 112 103 89 95 105 105 99 99 92 86 89 97 108 115 153 139 117 123 106 80 26 2 47 40 53 341 330 141 115 101 128 76 57 53 62 44 38